Flag for U.S.A. Weather past 2 weeks in Santa Cruz, California, U.S.A.

Now
53 °F

Fog.


Feels Like: 53 °F
Forecast: 52 / 69 °F
Wind: 3 mph from Northeast

Location: Watsonville Municipal Airport

Current Time: May 29, 2015 at 4:29:43 AM

Latest Report: May 29, 2015 at 3:53 AM


Visibility: 2 mi

Pressure: 29.99 "Hg

Humidity: 93%

Dew point: 51 °F

Location of Santa CruzLocation

Historic Weather in Santa Cruz — Graph

°F

Santa Cruz temperature yesterday

Maximum temperature yesterday: 68 °F (at 2:53 PM)
Minimum temperature yesterday: 50 °F (at 12:53 AM)
Average temperature yesterday: 58 °F

Past Weeks' High & Low Weather Summary

 TemperatureHumidityPressure
High68 °F (May 28, 2:53 PM)97% (May 26, 4:53 AM)30.13 "Hg (May 26, 4:53 AM)
Low46 °F (May 15, 5:53 AM)52% (May 18, 6:53 PM)29.82 "Hg (May 14, 6:53 PM)
Average57 °F78%30.01 "Hg
* Reported May 14 2:04 AM — May 29 2:59 AM, Santa Cruz, Weather by CustomWeather, © 2015

Note: Actual official high and low records may vary slightly from our data, if they occured in-between our weather recording intervals... More about our weather records

Advertising

Santa Cruz weather history for previous 24 hours

 ConditionsComfort  
Time TempWeatherWind HumidityBarometerVisibility
2:59 AM
Fri, May 29
52 °FFog.No wind97%30.00 "Hg3 mi
1:53 AM53 °FLow clouds.No wind93%30.00 "Hg9 mi
1:00 AM53 °FLow clouds.No wind93%30.01 "Hg10 mi
11:53 PM
Thu, May 28
54 °FLow clouds.5 mph90%30.01 "Hg10 mi
10:53 PM54 °FLow clouds.6 mph90%30.02 "Hg10 mi
9:53 PM54 °FLow clouds.7 mph90%30.01 "Hg10 mi
8:53 PM56 °FSunny.7 mph87%30.00 "Hg10 mi
7:53 PM59 °FSunny.9 mph78%29.98 "Hg10 mi
6:53 PM62 °FSunny.12 mph70%29.98 "Hg10 mi
5:53 PM67 °FSunny.7 mph59%29.97 "Hg10 mi
4:53 PM66 °FSunny.8 mph61%29.98 "Hg10 mi
3:53 PM68 °FSunny.10 mph59%30.00 "Hg10 mi
2:53 PM68 °FSunny.7 mph59%30.01 "Hg10 mi
1:53 PM65 °FSunny.8 mph66%30.03 "Hg10 mi
12:53 PM66 °FSunny.12 mph63%30.03 "Hg10 mi
12:01 PM63 °FScattered clouds.9 mph70%30.05 "Hg10 mi
10:53 AM59 °FOvercast.No wind78%30.05 "Hg10 mi
10:03 AM57 °FOvercast.3 mph83%30.05 "Hg10 mi
9:53 AM57 °FLow clouds.No wind83%30.05 "Hg10 mi
8:53 AM55 °FLow clouds.3 mph90%30.06 "Hg10 mi
7:53 AM53 °FFog.No wind93%30.06 "Hg2 mi
6:53 AM52 °FFog.3 mph97%30.05 "Hg5 mi
5:53 AM52 °FLow clouds.No wind93%30.03 "Hg9 mi
4:53 AM51 °FFog.No wind96%30.03 "Hg1 mi
Weather by CustomWeather, © 2015

See weather overviewHow to use our weather pages